Location: Kirchberg
(47.4114°N, 9.0398°E)
Time: 03:33:37
(UTC+00:00)

COSMOS 2428 - Pass Details

Date: 03 March 2021
Orbit: 845 x 858 km, 70.9° (Epoch: 16 April)

Event Time Altitude Azimuth Distance (km) Brightness Sun altitude
Rises 19:16:47 0° 190° (S) 3,391 5.8 -21.8°
Reaches altitude 10° 19:19:16 10° 186° (S) 2,460 5.0 -22.2°
Maximum altitude 19:24:44 54° 110° (ESE) 1,029 2.7 -23.0°
Enters shadow 19:24:46 54° 110° (ESE) 1,029 2.7 -23.1°
Exits shadow 19:32:03 - 32° (NNE) 3,154 5.5 -24.2°
Sets 19:32:46 0° 31° (NNE) 3,423 5.7 -24.3°
